This is the latest recevied weather packets stored in our database for station/object VE6EN. If no packets are shown the sender has not sent any weather packets the latest 10 day(s).
| Time | Temp. | Humidity | Pressure | Rain* | Wind** | Luminosity | Snow |
|---|---|---|---|---|---|---|---|
| 1777836000 | 20.56° C | 25% | 1009.2 hPa | 0 mm | - | - | - |
| 1777835399 | 20° C | 24% | 1009.3 hPa | 0 mm | - | - | - |
| 1777834799 | 20.56° C | 23% | 1009.5 hPa | 0 mm | - | - | - |
| 1777834199 | 20° C | 27% | 1009.8 hPa | 0 mm | - | - | - |
| 1777833599 | 20.56° C | 21% | 1009.9 hPa | 0 mm | - | - | - |
| 1777832999 | 20.56° C | 25% | 1010.1 hPa | 0 mm | - | - | - |
| 1777832399 | 20° C | 23% | 1009.9 hPa | 0 mm | - | - | - |
| 1777831800 | 20° C | 22% | 1010.2 hPa | 0 mm | - | - | - |
| 1777831200 | 19.44° C | 24% | 1010.2 hPa | 0 mm | - | - | - |
| 1777830599 | 18.89° C | 25% | 1010.3 hPa | 0 mm | - | - | - |
| 1777830004 | 18.89° C | 25% | 1010.6 hPa | 0 mm | - | - | - |
| 1777829399 | 18.89° C | 27% | 1010.8 hPa | 0 mm | - | - | - |
| 1777828799 | 18.33° C | 27% | 1010.9 hPa | 0 mm | - | - | - |
| 1777828199 | 18.33° C | 28% | 1011 hPa | 0 mm | - | - | - |
| 1777827599 | 18.33° C | 28% | 1011 hPa | 0 mm | - | - | - |
| 1777826999 | 17.78° C | 29% | 1011 hPa | 0 mm | - | - | - |
| 1777826399 | 17.22° C | 29% | 1011.1 hPa | 0 mm | - | - | - |
| 1777825799 | 16.67° C | 30% | 1011 hPa | 0 mm | - | - | - |
| 1777825199 | 15.56° C | 33% | 1011 hPa | 0 mm | - | - | - |
| 1777824600 | 15.56° C | 32% | 1011.2 hPa | 0 mm | - | - | - |
| 1777823998 | 15° C | 33% | 1011.3 hPa | 0 mm | - | - | - |
| 1777823399 | 14.44° C | 35% | 1011.3 hPa | 0 mm | - | - | - |
| 1777822804 | 13.89° C | 35% | 1011.3 hPa | 0 mm | - | - | - |
| 1777822199 | 13.33° C | 35% | 1011.2 hPa | 0 mm | - | - | - |
| 1777821599 | 12.78° C | 39% | 1011.3 hPa | 0 mm | - | - | - |
* Rain latest hour (hover to see other rain measurements)
** Current wind speed in m/s (hover to see current wind gust speed)